timestamp,wind_dir_avg,wind_spd_avg,wind_spd_max_dir,wind_spd_gust,battery_voltage,lat,long
2023-04-08 00:04:01+00:00,289.0,8.93,297.0,10.35,12.41,47.59359,-54.27349
2023-04-08 00:14:00+00:00,283.0,9.4,287.0,11.8,12.33,47.59359,-54.27349
2023-04-08 00:24:00+00:00,274.0,7.29,276.0,8.77,12.33,47.59359,-54.27349
2023-04-08 00:34:00+00:00,272.0,9.27,275.0,10.66,12.33,47.59359,-54.27349
2023-04-08 00:44:00+00:00,279.0,9.48,274.0,11.1,12.33,47.59359,-54.27349
2023-04-08 00:54:00+00:00,282.0,7.7,285.0,9.58,12.33,47.59359,-54.27349
2023-04-08 01:04:00+00:00,281.0,8.71,274.0,10.3,12.33,47.59359,-54.27349
2023-04-08 01:14:00+00:00,277.0,9.54,284.0,11.3,12.25,47.59359,-54.27349
2023-04-08 01:24:00+00:00,267.0,7.97,263.0,8.77,12.25,47.59359,-54.27349
2023-04-08 01:34:00+00:00,280.0,11.71,281.0,12.59,12.25,47.59359,-54.27349
2023-04-08 01:44:00+00:00,275.0,11.17,279.0,12.51,12.25,47.59359,-54.27349
2023-04-08 01:54:00+00:00,287.0,15.15,287.0,18.55,12.25,47.59359,-54.27349
2023-04-08 02:04:00+00:00,285.0,9.57,284.0,11.14,12.25,47.59359,-54.27349
2023-04-08 02:14:01+00:00,275.0,10.05,277.0,11.18,12.25,47.59359,-54.27349
2023-04-08 02:24:01+00:00,277.0,10.38,275.0,11.68,12.25,47.59359,-54.27349
2023-04-08 02:34:01+00:00,265.0,9.83,268.0,12.24,12.25,47.59359,-54.27349
2023-04-08 02:44:01+00:00,276.0,8.99,275.0,9.96,12.25,47.59359,-54.27349
2023-04-08 02:54:01+00:00,286.0,9.69,287.0,11.66,12.25,47.59359,-54.27349
2023-04-08 03:04:01+00:00,269.0,10.02,271.0,13.28,12.25,47.59359,-54.27349
2023-04-08 03:14:00+00:00,283.0,9.65,286.0,11.72,12.25,47.59359,-54.27349
2023-04-08 03:24:00+00:00,293.0,10.04,299.0,11.4,12.25,47.59359,-54.27349
2023-04-08 03:34:00+00:00,282.0,10.33,277.0,12.05,12.25,47.59359,-54.27349
2023-04-08 03:44:00+00:00,283.0,9.62,293.0,10.91,12.25,47.59359,-54.27349
2023-04-08 03:54:00+00:00,287.0,11.03,289.0,11.95,12.25,47.59359,-54.27349
2023-04-08 04:04:00+00:00,286.0,9.13,291.0,10.71,12.25,47.59359,-54.27349
2023-04-08 04:14:01+00:00,291.0,11.05,297.0,13.07,12.17,47.59359,-54.27349
2023-04-08 04:24:01+00:00,285.0,10.85,280.0,15.58,12.17,47.59359,-54.27349
2023-04-08 04:34:01+00:00,291.0,12.92,286.0,18.11,12.17,47.59359,-54.27349
2023-04-08 04:44:01+00:00,281.0,11.24,281.0,13.76,12.17,47.59359,-54.27349
2023-04-08 04:54:01+00:00,287.0,11.77,288.0,17.22,12.17,47.59359,-54.27349
2023-04-08 05:04:01+00:00,288.0,10.07,291.0,11.27,12.17,47.59359,-54.27349
2023-04-08 05:14:00+00:00,280.0,13.44,284.0,19.02,12.17,47.59359,-54.27349
2023-04-08 05:24:00+00:00,282.0,11.59,286.0,17.93,12.17,47.59359,-54.27349
2023-04-08 05:34:00+00:00,284.0,10.49,286.0,11.93,12.17,47.59359,-54.27349
2023-04-08 05:44:00+00:00,281.0,13.5,276.0,17.85,12.17,47.59359,-54.27349
2023-04-08 05:54:00+00:00,288.0,10.99,282.0,12.62,12.17,47.59359,-54.27349
2023-04-08 06:04:00+00:00,291.0,11.56,279.0,17.03,12.17,47.59359,-54.27349
2023-04-08 06:14:00+00:00,281.0,10.75,284.0,12.12,12.17,47.59359,-54.27349
2023-04-08 06:24:00+00:00,287.0,10.59,282.0,12.41,12.17,47.59359,-54.27349
2023-04-08 06:34:00+00:00,283.0,10.36,284.0,12.44,12.17,47.59359,-54.27349
2023-04-08 06:44:00+00:00,284.0,12.16,282.0,17.77,12.17,47.59359,-54.27349
2023-04-08 06:54:00+00:00,281.0,9.82,279.0,11.39,12.17,47.59359,-54.27349
2023-04-08 07:04:00+00:00,282.0,10.84,285.0,11.98,12.17,47.59359,-54.27349
2023-04-08 07:14:00+00:00,276.0,10.12,276.0,11.62,12.09,47.59359,-54.27349
2023-04-08 07:24:00+00:00,280.0,8.84,283.0,9.94,12.09,47.59359,-54.27349
2023-04-08 07:34:00+00:00,282.0,9.09,277.0,10.86,12.09,47.59359,-54.27349
2023-04-08 07:44:00+00:00,279.0,9.06,279.0,10.02,12.09,47.59359,-54.27349
2023-04-08 07:54:00+00:00,284.0,9.44,277.0,11.11,12.09,47.59359,-54.27349
2023-04-08 08:04:00+00:00,285.0,9.64,286.0,11.12,12.09,47.59359,-54.27349
2023-04-08 08:14:00+00:00,275.0,8.63,279.0,10.83,12.09,47.59359,-54.27349
2023-04-08 08:24:00+00:00,274.0,8.74,276.0,10.62,12.09,47.59359,-54.27349
2023-04-08 08:34:00+00:00,279.0,9.65,282.0,10.59,12.09,47.59359,-54.27349
2023-04-08 08:44:00+00:00,280.0,9.3,280.0,11.06,12.09,47.59359,-54.27349
2023-04-08 08:54:00+00:00,278.0,8.75,277.0,9.75,12.09,47.59359,-54.27349
2023-04-08 09:04:00+00:00,277.0,8.65,275.0,10.88,12.09,47.59359,-54.27349
2023-04-08 09:14:00+00:00,278.0,9.51,282.0,11.61,12.01,47.59359,-54.27349
2023-04-08 09:24:00+00:00,284.0,8.8,283.0,11.13,12.01,47.59359,-54.27349
2023-04-08 09:34:00+00:00,282.0,9.3,287.0,11.47,12.01,47.59359,-54.27349
2023-04-08 09:44:00+00:00,286.0,8.77,284.0,11.01,12.01,47.59359,-54.27349
2023-04-08 09:54:00+00:00,285.0,8.56,284.0,9.56,12.01,47.59359,-54.27349
2023-04-08 10:04:00+00:00,280.0,9.17,280.0,11.35,12.01,47.59359,-54.27349
2023-04-08 10:14:00+00:00,277.0,8.7,279.0,10.14,13.05,47.59359,-54.27349
2023-04-08 10:24:00+00:00,274.0,9.37,287.0,10.5,13.05,47.59359,-54.27349
2023-04-08 10:34:00+00:00,274.0,9.14,282.0,10.61,13.05,47.59359,-54.27349
2023-04-08 10:44:00+00:00,277.0,8.91,281.0,10.58,13.05,47.59359,-54.27349
2023-04-08 10:54:00+00:00,285.0,9.06,284.0,10.71,13.05,47.59359,-54.27349
2023-04-08 11:04:00+00:00,289.0,8.66,288.0,10.79,13.05,47.59359,-54.27349
2023-04-08 11:14:00+00:00,301.0,10.33,296.0,11.99,13.76,47.59359,-54.27349
2023-04-08 11:24:00+00:00,291.0,11.63,298.0,13.23,13.76,47.59359,-54.27349
2023-04-08 11:34:00+00:00,291.0,9.94,291.0,11.33,13.76,47.59359,-54.27349
2023-04-08 11:44:00+00:00,303.0,11.39,307.0,13.15,13.76,47.59359,-54.27349
2023-04-08 11:54:00+00:00,299.0,12.17,301.0,13.47,13.76,47.59359,-54.27349
2023-04-08 12:04:00+00:00,299.0,11.39,298.0,12.79,13.76,47.59359,-54.27349
2023-04-08 12:14:00+00:00,300.0,10.35,301.0,11.86,13.76,47.59359,-54.27349
2023-04-08 12:24:00+00:00,295.0,10.2,300.0,11.85,13.76,47.59359,-54.27349
2023-04-08 12:34:00+00:00,297.0,10.3,300.0,12.3,13.76,47.59359,-54.27349
2023-04-08 12:44:00+00:00,306.0,11.13,309.0,12.98,13.76,47.59359,-54.27349
2023-04-08 12:54:00+00:00,307.0,10.88,301.0,12.25,13.76,47.59359,-54.27349
2023-04-08 13:04:00+00:00,290.0,9.9,285.0,11.2,13.76,47.59359,-54.27349
2023-04-08 13:14:00+00:00,294.0,9.71,293.0,11.1,13.68,47.59359,-54.27349
2023-04-08 13:24:00+00:00,285.0,9.14,283.0,10.85,13.68,47.59359,-54.27349
2023-04-08 13:34:00+00:00,300.0,10.1,302.0,12.29,13.68,47.59359,-54.27349
2023-04-08 13:44:00+00:00,293.0,9.84,295.0,11.74,13.68,47.59359,-54.27349
2023-04-08 13:54:00+00:00,287.0,10.32,290.0,11.2,13.68,47.59359,-54.27349
2023-04-08 14:04:00+00:00,302.0,11.88,303.0,12.8,13.68,47.59359,-54.27349
2023-04-08 14:14:00+00:00,302.0,10.52,310.0,12.52,13.6,47.59359,-54.27349
2023-04-08 14:24:00+00:00,293.0,7.8,287.0,11.38,13.6,47.59359,-54.27349
2023-04-08 14:34:00+00:00,284.0,10.24,286.0,11.35,13.6,47.59359,-54.27349
2023-04-08 14:44:00+00:00,291.0,10.97,301.0,12.61,13.6,47.59359,-54.27349
2023-04-08 14:54:00+00:00,291.0,8.86,286.0,11.15,13.6,47.59359,-54.27349
2023-04-08 15:04:00+00:00,287.0,9.19,286.0,11.09,13.6,47.59359,-54.27349
2023-04-08 15:14:00+00:00,292.0,10.54,294.0,11.66,13.6,47.59359,-54.27349
2023-04-08 15:24:00+00:00,290.0,10.1,296.0,11.48,13.6,47.59359,-54.27349
2023-04-08 15:34:00+00:00,282.0,8.7,278.0,10.82,13.6,47.59359,-54.27349
2023-04-08 15:44:00+00:00,276.0,8.71,279.0,9.74,13.6,47.59359,-54.27349
2023-04-08 15:54:00+00:00,287.0,9.15,285.0,11.29,13.6,47.59359,-54.27349
2023-04-08 16:04:00+00:00,304.0,10.24,307.0,11.93,13.6,47.59359,-54.27349
2023-04-08 16:14:00+00:00,281.0,9.18,299.0,11.57,13.6,47.59359,-54.27349
2023-04-08 16:24:00+00:00,291.0,9.14,283.0,11.17,13.6,47.59359,-54.27349
2023-04-08 16:34:00+00:00,274.0,8.63,279.0,10.74,13.6,47.59359,-54.27349
2023-04-08 16:44:00+00:00,272.0,11.5,274.0,13.42,13.6,47.59359,-54.27349
2023-04-08 16:54:00+00:00,279.0,10.29,279.0,11.97,13.6,47.59359,-54.27349
2023-04-08 17:04:00+00:00,281.0,9.17,283.0,11.11,13.6,47.59359,-54.27349
2023-04-08 17:14:00+00:00,280.0,10.59,281.0,16.3,13.68,47.59359,-54.27349
2023-04-08 17:24:00+00:00,280.0,12.35,283.0,16.87,13.68,47.59359,-54.27349
2023-04-08 17:34:00+00:00,283.0,13.09,280.0,18.28,13.68,47.59359,-54.27349
2023-04-08 17:44:00+00:00,286.0,12.29,281.0,17.24,13.68,47.59359,-54.27349
2023-04-08 17:54:00+00:00,277.0,14.41,279.0,18.23,13.68,47.59359,-54.27349
2023-04-08 18:04:00+00:00,275.0,11.82,277.0,15.41,13.68,47.59359,-54.27349
2023-04-08 18:14:00+00:00,294.0,9.97,287.0,12.22,13.6,47.59359,-54.27349
2023-04-08 18:24:00+00:00,273.0,9.99,274.0,11.89,13.6,47.59359,-54.27349
2023-04-08 18:34:00+00:00,275.0,10.37,273.0,11.32,13.6,47.59359,-54.27349
2023-04-08 18:44:00+00:00,287.0,10.24,299.0,12.35,13.6,47.59359,-54.27349
2023-04-08 18:54:00+00:00,289.0,11.76,284.0,15.23,13.6,47.59359,-54.27349
2023-04-08 19:04:00+00:00,294.0,10.56,297.0,12.66,13.6,47.59359,-54.27349
2023-04-08 19:14:00+00:00,285.0,9.75,287.0,11.48,13.68,47.59359,-54.27349
2023-04-08 19:24:00+00:00,283.0,8.97,282.0,10.16,13.68,47.59359,-54.27349
2023-04-08 19:34:00+00:00,286.0,11.41,281.0,15.37,13.68,47.59359,-54.27349
2023-04-08 19:44:00+00:00,278.0,9.12,279.0,10.74,13.68,47.59359,-54.27349
2023-04-08 19:54:00+00:00,287.0,10.91,283.0,13.78,13.68,47.59359,-54.27349
2023-04-08 20:04:00+00:00,305.0,12.0,308.0,13.11,13.68,47.59359,-54.27349
2023-04-08 20:14:01+00:00,296.0,10.62,299.0,12.41,13.6,47.59359,-54.27349
2023-04-08 20:24:01+00:00,302.0,10.71,306.0,12.59,13.6,47.59359,-54.27349
2023-04-08 20:34:01+00:00,306.0,11.56,309.0,13.92,13.6,47.59359,-54.27349
2023-04-08 20:44:01+00:00,302.0,10.69,300.0,12.43,13.6,47.59359,-54.27349
2023-04-08 20:54:01+00:00,303.0,11.03,305.0,12.42,13.6,47.59359,-54.27349
2023-04-08 21:04:01+00:00,294.0,11.14,292.0,13.68,13.6,47.59359,-54.27349
2023-04-08 21:14:00+00:00,295.0,11.02,295.0,13.63,13.6,47.59359,-54.27349
2023-04-08 21:24:00+00:00,308.0,11.46,306.0,12.89,13.6,47.59359,-54.27349
2023-04-08 21:34:00+00:00,304.0,11.61,305.0,12.93,13.6,47.59359,-54.27349
2023-04-08 21:44:00+00:00,303.0,10.5,301.0,12.35,13.6,47.59359,-54.27349
2023-04-08 21:54:00+00:00,293.0,9.89,297.0,11.4,13.6,47.59359,-54.27349
2023-04-08 22:04:00+00:00,292.0,9.43,286.0,11.12,13.6,47.59359,-54.27349
2023-04-08 22:14:00+00:00,298.0,9.98,298.0,11.79,13.05,47.59359,-54.27349
2023-04-08 22:24:00+00:00,305.0,10.5,302.0,11.88,13.05,47.59359,-54.27349
2023-04-08 22:34:00+00:00,305.0,10.24,305.0,11.85,13.05,47.59359,-54.27349
2023-04-08 22:44:00+00:00,299.0,9.91,297.0,11.32,13.05,47.59359,-54.27349
2023-04-08 22:54:00+00:00,304.0,8.92,302.0,11.1,13.05,47.59359,-54.27349
2023-04-08 23:04:00+00:00,302.0,9.07,301.0,10.93,13.05,47.59359,-54.27349
2023-04-08 23:14:00+00:00,301.0,10.34,299.0,11.72,12.49,47.59359,-54.27349
2023-04-08 23:24:00+00:00,303.0,9.78,313.0,11.37,12.49,47.59359,-54.27349
2023-04-08 23:34:00+00:00,300.0,10.29,309.0,13.33,12.49,47.59359,-54.27349
2023-04-08 23:44:00+00:00,295.0,9.65,299.0,11.4,12.49,47.59359,-54.27349
2023-04-08 23:54:00+00:00,301.0,7.88,293.0,9.12,12.49,47.59359,-54.27349
